GW1200 Weather Reports


Display with metric or nautical units.
time (UTC)temp
F
wind
direction
speed
MPH
gust
MPH
rain 1hr
in
rain 24hr
in
rain mn
in
humidity
%
barometer
mb
20260507115448 55 33 7.0 9.0 0.00 0.19 0.19 97 4251.4
20260507114445 55 12 7.0 9.0 0.00 0.19 0.19 97 4250.8
20260507113446 54 9 5.0 6.0 0.00 0.19 0.19 97 4250.8
20260507112440 54 31 5.0 7.0 0.00 0.19 0.19 97 4250.8
20260507111440 55 15 7.0 8.0 0.00 0.19 0.19 97 4250.7
20260507110438 55 13 6.0 8.0 0.00 0.19 0.19 97 4250.6
20260507105438 54 356 5.0 6.0 0.00 0.19 0.19 98 4250.2
20260507104437 54 19 3.0 5.0 0.00 0.19 0.19 98 4250.0
20260507103435 54 342 6.0 7.0 0.00 0.19 0.19 97 4250.1
20260507102434 54 351 4.0 6.0 0.00 0.19 0.19 98 4250.2
20260507101431 54 11 5.0 7.0 0.00 0.19 0.19 99 4250.2
20260507100431 54 29 5.0 6.0 0.00 0.19 0.19 99 4250.3
20260507095427 53 2 5.0 7.0 0.00 0.19 0.19 99 4249.8
20260507094426 54 30 4.0 5.0 0.00 0.19 0.19 99 4249.8
20260507093421 54 47 3.0 3.0 0.00 0.19 0.19 99 4249.7
20260507092420 53 25 1.0 2.0 0.00 0.19 0.19 99 4249.7
20260507091420 54 39 4.0 5.0 0.00 0.19 0.19 99 4249.3
20260507090418 54 41 3.0 3.0 0.00 0.19 0.19 99 4249.9
20260507085418 54 25 7.0 8.0 0.00 0.19 0.19 99 4250.0
20260507084417 54 343 7.0 8.0 0.00 0.19 0.19 99 4250.0
20260507083417 54 353 7.0 9.0 0.00 0.19 0.19 99 4250.0
20260507082415 54 18 5.0 6.0 0.05 0.19 0.19 99 4250.1
20260507081414 55 20 7.0 9.0 0.07 0.18 0.18 99 4249.5
20260507080413 55 15 6.0 7.0 0.05 0.17 0.17 99 4250.1
20260507075410 54 338 3.0 3.0 0.07 0.16 0.16 99 4250.1
20260507074410 55 38 7.0 8.0 0.05 0.15 0.15 99 4250.2
20260507073410 55 359 6.0 7.0 0.26 0.14 0.14 99 4250.0
20260507072404 54 349 2.0 3.0 0.05 0.10 0.10 99 4250.8
20260507071404 55 334 5.0 6.0 0.00 0.09 0.09 99 4249.7
20260507070404 55 64 9.0 10.0 0.07 0.09 0.09 99 4249.4
20260507065403 56 1 5.0 9.0 0.05 0.08 0.08 99 4249.7
20260507064359 56 38 4.0 6.0 0.24 0.07 0.07 99 4250.1
20260507063359 56 30 4.0 5.0 0.24 0.04 0.04 99 4250.1
20260507062358 57 62 5.0 7.0 0.00 0.00 0.00 99 4250.9
20260507061354 57 15 6.0 8.0 0.00 0.00 0.00 99 4249.4
20260507060355 57 32 4.0 6.0 0.00 0.00 0.00 99 4249.8
20260507055352 57 51 4.0 5.0 0.00 0.00 0.00 99 4250.0
20260507054351 57 24 3.0 5.0 0.00 0.00 0.00 99 4250.3
20260507053346 57 17 8.0 9.0 0.00 0.00 0.00 99 4250.5
20260507052341 57 34 1.0 2.0 0.00 0.00 0.00 99 4250.2
20260507051337 57 49 3.0 5.0 0.00 0.00 0.00 99 4250.3
20260507050335 57 30 2.0 3.0 0.00 0.00 0.00 99 4250.3
20260507045335 57 8 5.0 6.0 0.00 1.26 1.26 99 4250.5
20260507044335 57 17 3.0 5.0 0.00 1.26 1.26 99 4250.1
20260507043333 57 58 4.0 6.0 0.00 1.26 1.26 99 4249.7
20260507042331 57 22 4.0 5.0 0.00 1.26 1.26 99 4250.2
20260507041331 57 6 5.0 7.0 0.00 1.26 1.26 99 4250.5
20260507040330 57 42 2.0 5.0 0.00 1.26 1.26 99 4250.3
20260507035327 57 57 5.0 7.0 0.00 1.26 1.26 99 4250.4
20260507034322 57 34 6.0 8.0 0.00 1.26 1.26 99 4250.8
20260507033318 57 14 5.0 7.0 0.00 1.26 1.26 99 4250.4
20260507032316 57 15 3.0 5.0 0.00 1.26 1.26 99 4250.2
20260507031316 57 46 2.0 3.0 0.00 1.26 1.26 99 4250.0
20260507030316 57 39 6.0 9.0 0.00 1.26 1.26 99 4249.8
20260507025315 57 63 5.0 6.0 0.00 1.26 1.26 99 4250.1
20260507024315 57 48 5.0 7.0 0.00 1.26 1.26 99 4250.2
20260507023312 57 49 9.0 10.0 0.00 1.26 1.26 99 4250.1
20260507022312 58 44 4.0 7.0 0.00 1.26 1.26 99 4250.1
20260507021310 58 15 5.0 8.0 0.00 1.26 1.26 99 4250.2
20260507020310 57 45 3.0 3.0 0.00 1.26 1.26 99 4249.9
20260507015310 57 22 8.0 9.0 0.00 1.26 1.26 99 4249.7
20260507014309 57 44 3.0 3.0 0.00 1.26 1.26 99 4249.4
20260507013309 57 30 4.0 5.0 0.00 1.26 1.26 99 4249.2
20260507012308 58 30 4.0 5.0 0.00 1.26 1.26 99 4248.9
20260507011308 58 43 3.0 5.0 0.00 1.26 1.26 99 4249.1
20260507010303 57 40 3.0 3.0 0.00 1.26 1.26 99 4249.0
20260507005305 58 348 5.0 6.0 0.00 1.26 1.26 99 4249.2
20260507004303 58 47 5.0 7.0 0.00 1.26 1.26 99 4248.9
20260507003301 58 26 2.0 3.0 0.00 1.26 1.26 99 4249.1
20260507002259 57 39 1.0 2.0 0.00 1.26 1.26 99 4249.3
20260507001254 57 42 2.0 2.0 0.00 1.26 1.26 99 4249.5
20260507000251 57 45 4.0 5.0 0.00 1.26 1.26 99 4249.8
20260506235250 57 3 5.0 6.0 0.00 1.26 1.26 99 4249.8
20260506234244 57 21 5.0 6.0 0.00 1.26 1.26 99 4249.7
20260506233244 57 59 1.0 2.0 0.00 1.26 1.26 99 4249.5
20260506232241 57 41 1.0 1.0 0.00 1.26 1.26 99 4248.7
20260506231237 57 58 2.0 2.0 0.00 1.26 1.26 99 4249.1
20260506230236 57 57 5.0 6.0 0.00 1.26 1.26 99 4248.9
20260506225236 57 16 1.0 1.0 0.00 1.26 1.26 99 4249.3
20260506224236 57 43 2.0 2.0 0.00 1.26 1.26 99 4249.0
20260506223233 57 356 7.0 8.0 0.31 1.26 1.26 99 4249.5
20260506222232 58 5 15.0 16.0 0.12 1.21 1.21 99 4250.3
20260506221228 58 13 8.0 9.0 0.00 1.19 1.19 99 4249.8
20260506220225 58 19 10.0 11.0 0.00 1.19 1.19 99 4249.7
20260506215224 59 349 9.0 11.0 0.00 1.19 1.19 99 4249.8
20260506214224 59 14 8.0 10.0 0.00 1.19 1.19 99 4249.1
20260506213219 60 349 13.0 14.0 0.00 1.19 1.19 99 4248.7
20260506212217 60 351 13.0 15.0 0.05 1.19 1.19 99 4249.0
20260506211215 60 2 5.0 6.0 0.00 1.18 1.18 99 4249.0
20260506210215 60 322 7.0 8.0 0.00 1.18 1.18 99 4249.1
20260506205213 62 352 11.0 15.0 0.00 1.18 1.18 99 4249.0
20260506204208 62 350 9.0 10.0 0.00 1.18 1.18 99 4248.3
20260506203203 61 353 5.0 6.0 0.00 1.18 1.18 99 4248.3
20260506202202 61 345 7.0 8.0 0.00 1.18 1.18 99 4248.2
20260506201202 62 3 6.0 7.0 0.00 1.18 1.18 99 4248.4
20260506200202 62 359 7.0 9.0 0.00 1.18 1.18 99 4248.3
20260506195200 62 356 7.0 8.0 0.00 1.18 1.18 99 4248.5
20260506194200 62 351 1.0 1.0 0.07 1.18 1.18 99 4248.6
20260506193201 62 350 0.0 1.0 0.00 1.17 1.17 99 4248.9
20260506192200 62 333 4.0 5.0 0.00 1.17 1.17 99 4249.0
20260506191158 62 351 3.0 3.0 0.00 1.17 1.17 99 4248.8
20260506190158 62 351 5.0 7.0 0.00 1.17 1.17 99 4248.9
20260506185157 62 311 9.0 11.0 0.00 1.17 1.17 99 4248.9
20260506184153 62 349 9.0 9.0 0.00 1.17 1.17 99 4248.5
20260506183151 63 7 7.0 8.0 0.05 1.17 1.17 99 4248.3
20260506182151 63 2 12.0 14.0 0.12 1.16 1.16 99 4248.6
20260506181146 64 344 8.0 9.0 0.14 1.14 1.14 99 4249.1
20260506180145 66 19 2.0 3.0 0.17 1.12 1.12 99 4249.0
20260506175144 66 209 1.0 1.0 0.19 1.09 1.09 99 4249.1
20260506174139 66 246 1.0 1.0 0.05 1.06 1.06 99 4248.8
20260506173139 66 318 0.0 0.0 0.00 1.05 1.05 99 4248.5
20260506172138 66 285 0.0 1.0 0.31 1.05 1.05 99 4248.4
20260506171134 66 59 1.0 1.0 0.78 1.00 1.00 99 4248.9
20260506170128 66 329 0.0 1.0 0.35 0.88 0.88 99 4249.5
20260506165127 65 19 1.0 2.0 0.05 0.82 0.82 99 4248.1
20260506164127 65 353 2.0 2.0 0.42 0.81 0.81 99 4248.6
20260506163123 66 343 2.0 3.0 0.28 0.75 0.75 99 4248.7
20260506162122 66 35 8.0 10.0 0.12 0.70 0.70 99 4248.9
20260506161121 66 355 5.0 6.0 0.31 0.68 0.68 99 4248.6
20260506160121 67 3 12.0 13.0 0.07 0.63 0.63 99 4248.5
20260506155116 68 273 1.0 1.0 0.05 0.62 0.62 99 4248.1
20260506152924 68 262 1.0 1.0 0.00 0.61 0.61 99 4248.1
20260506151920 67 262 0.0 0.0 0.00 0.61 0.61 99 4248.1
20260506150920 67 280 0.0 0.0 0.00 0.61 0.61 99 4248.3
20260506145919 67 245 0.0 1.0 0.00 0.61 0.61 99 4248.5
20260506144918 67 243 2.0 2.0 0.00 0.61 0.61 99 4248.4
20260506143913 67 85 2.0 3.0 0.00 0.61 0.61 99 4247.9
20260506142908 67 252 0.0 1.0 0.00 0.61 0.61 99 4247.7
20260506141904 67 27 1.0 1.0 0.00 0.61 0.61 99 4247.9
20260506140859 67 314 1.0 2.0 0.00 0.61 0.61 99 4247.9
20260506135859 66 339 1.0 1.0 0.00 0.61 0.61 99 4247.7
20260506134858 66 321 3.0 5.0 0.00 0.61 0.61 99 4247.9
20260506133857 66 233 2.0 5.0 0.07 0.61 0.61 99 4247.9
20260506132856 67 219 2.0 3.0 0.00 0.60 0.60 99 4247.6
20260506131851 67 55 1.0 1.0 0.00 0.60 0.60 99 4247.4
20260506130850 67 257 1.0 2.0 0.00 0.60 0.60 99 4247.4
20260506125850 66 187 2.0 3.0 0.00 0.60 0.60 99 4247.2
20260506124846 66 248 2.0 2.0 0.12 0.60 0.60 99 4247.0
20260506123846 66 292 1.0 1.0 0.19 0.59 0.59 99 4246.6
20260506122842 66 352 0.0 0.0 0.26 0.55 0.55 99 4247.9
20260506121843 66 201 1.0 1.0 0.12 0.51 0.51 99 4248.0
20260506120842 66 309 0.0 1.0 0.52 0.49 0.49 99 4247.8